Time,TemperatureF,DewpointF,PressureIn,WindDirection,WindDirectionDegrees,WindSpeedMPH,WindSpeedGustMPH,Humidity,HourlyPrecipIn,Conditions,Clouds,dailyrainin,SoftwareType,DateUTC
2013-04-09 00:02:00,72.0,62.0,29.65,SE,130,14.0,29.0,72,0.00,,,0.00,,2013-04-09 05:02:00,
2013-04-09 00:12:00,72.0,63.0,29.65,SE,140,14.0,21.0,73,0.00,,,0.00,,2013-04-09 05:12:00,
2013-04-09 00:22:00,72.0,63.0,29.65,SE,140,14.0,21.0,73,0.00,,,0.00,,2013-04-09 05:22:00,
2013-04-09 00:32:00,72.0,63.0,29.65,SSE,160,13.0,26.0,73,0.00,,,0.00,,2013-04-09 05:32:00,
2013-04-09 00:42:00,71.0,62.0,29.66,SSE,148,10.0,28.0,74,0.00,,,0.00,,2013-04-09 05:42:00,
2013-04-09 00:52:00,71.0,62.0,29.66,SSE,148,10.0,28.0,74,0.00,,,0.00,,2013-04-09 05:52:00,
2013-04-09 01:02:00,71.0,63.0,29.65,SE,127,9.0,23.0,75,0.00,,,0.00,,2013-04-09 06:02:00,
2013-04-09 01:12:00,71.0,63.0,29.65,SSE,150,7.0,21.0,76,0.00,,,0.00,,2013-04-09 06:12:00,
2013-04-09 01:22:00,71.0,63.0,29.65,SSE,150,7.0,21.0,76,0.00,,,0.00,,2013-04-09 06:22:00,
2013-04-09 01:32:00,71.0,63.0,29.66,SE,124,10.0,18.0,76,0.00,,,0.00,,2013-04-09 06:32:00,
2013-04-09 01:42:00,71.0,63.0,29.66,SE,124,10.0,18.0,76,0.00,,,0.00,,2013-04-09 06:42:00,
2013-04-09 01:52:00,70.0,62.0,29.65,SE,135,7.0,17.0,77,0.00,,,0.00,,2013-04-09 06:52:00,
2013-04-09 02:02:00,70.0,62.0,29.65,ESE,105,8.0,25.0,77,0.00,,,0.00,,2013-04-09 07:02:00,
2013-04-09 02:12:00,70.0,62.0,29.65,ESE,105,8.0,25.0,77,0.00,,,0.00,,2013-04-09 07:12:00,
2013-04-09 02:22:00,70.0,63.0,29.65,SE,124,7.0,16.0,78,0.00,,,0.00,,2013-04-09 07:22:00,
2013-04-09 02:32:00,70.0,63.0,29.64,SSE,155,7.0,20.0,79,0.00,,,0.00,,2013-04-09 07:32:00,
2013-04-09 02:42:00,70.0,63.0,29.64,SSE,155,7.0,20.0,79,0.00,,,0.00,,2013-04-09 07:42:00,
2013-04-09 02:52:00,70.0,64.0,29.64,SE,141,8.0,20.0,80,0.00,,,0.00,,2013-04-09 07:52:00,
2013-04-09 03:03:00,69.0,63.0,29.64,SE,142,11.0,21.0,82,0.00,,,0.00,,2013-04-09 08:03:00,
2013-04-09 03:12:00,69.0,63.0,29.64,SE,142,11.0,21.0,82,0.00,,,0.00,,2013-04-09 08:12:00,
2013-04-09 03:22:00,69.0,64.0,29.64,SE,134,7.0,20.0,84,0.00,,,0.00,,2013-04-09 08:22:00,
2013-04-09 03:32:00,69.0,64.0,29.62,SE,134,11.0,22.0,85,0.00,,,0.00,,2013-04-09 08:32:00,
2013-04-09 03:42:00,69.0,64.0,29.62,SE,134,11.0,22.0,85,0.00,,,0.00,,2013-04-09 08:42:00,
2013-04-09 03:52:00,69.0,65.0,29.62,SE,135,12.0,21.0,86,0.00,,,0.00,,2013-04-09 08:52:00,
2013-04-09 04:02:00,69.0,65.0,29.62,SSE,160,12.0,20.0,86,0.00,,,0.00,,2013-04-09 09:02:00,
2013-04-09 04:12:00,69.0,65.0,29.63,SSE,148,10.0,17.0,86,0.00,,,0.00,,2013-04-09 09:12:00,
2013-04-09 04:22:00,69.0,65.0,29.63,SSE,148,10.0,17.0,86,0.00,,,0.00,,2013-04-09 09:22:00,
2013-04-09 04:33:00,69.0,64.0,29.62,SE,126,10.0,21.0,85,0.00,,,0.00,,2013-04-09 09:33:00,
2013-04-09 04:43:00,69.0,64.0,29.62,SE,126,10.0,21.0,85,0.00,,,0.00,,2013-04-09 09:43:00,
2013-04-09 04:52:00,69.0,64.0,29.62,SSE,155,10.0,19.0,84,0.00,,,0.00,,2013-04-09 09:52:00,
2013-04-09 05:03:00,70.0,65.0,29.62,SE,134,10.0,24.0,84,0.00,,,0.00,,2013-04-09 10:03:00,
2013-04-09 05:12:00,70.0,65.0,29.62,SE,134,10.0,24.0,84,0.00,,,0.00,,2013-04-09 10:12:00,
2013-04-09 05:23:00,69.0,64.0,29.62,SE,131,10.0,17.0,84,0.00,,,0.00,,2013-04-09 10:23:00,
2013-04-09 05:33:00,70.0,65.0,29.63,SE,139,11.0,19.0,84,0.00,,,0.00,,2013-04-09 10:33:00,
2013-04-09 05:42:00,70.0,65.0,29.63,SE,139,11.0,19.0,84,0.00,,,0.00,,2013-04-09 10:42:00,
2013-04-09 05:52:00,69.0,64.0,29.63,ESE,105,10.0,20.0,85,0.00,,,0.00,,2013-04-09 10:52:00,
2013-04-09 06:02:00,70.0,65.0,29.63,SSE,166,7.0,20.0,84,0.00,,,0.00,,2013-04-09 11:02:00,
2013-04-09 06:12:00,70.0,65.0,29.63,SSE,166,7.0,20.0,84,0.00,,,0.00,,2013-04-09 11:12:00,
2013-04-09 06:22:00,70.0,65.0,29.63,SSW,205,9.0,16.0,84,0.00,,,0.00,,2013-04-09 11:22:00,
2013-04-09 06:32:00,70.0,65.0,29.63,SE,134,9.0,21.0,84,0.00,,,0.00,,2013-04-09 11:32:00,
2013-04-09 06:42:00,70.0,65.0,29.63,SE,134,9.0,21.0,84,0.00,,,0.00,,2013-04-09 11:42:00,
2013-04-09 06:52:00,70.0,65.0,29.63,East,99,11.0,20.0,84,0.00,,,0.00,,2013-04-09 11:52:00,
2013-04-09 07:02:00,70.0,65.0,29.64,WSW,256,9.0,20.0,83,0.00,,,0.00,,2013-04-09 12:02:00,
2013-04-09 07:12:00,70.0,65.0,29.64,WSW,256,9.0,20.0,83,0.00,,,0.00,,2013-04-09 12:12:00,
2013-04-09 07:22:00,70.0,65.0,29.65,SSE,148,8.0,16.0,83,0.00,,,0.00,,2013-04-09 12:22:00,
2013-04-09 07:32:00,70.0,65.0,29.65,ESE,117,10.0,20.0,84,0.00,,,0.00,,2013-04-09 12:32:00,
2013-04-09 07:42:00,70.0,65.0,29.65,ESE,117,10.0,20.0,84,0.00,,,0.00,,2013-04-09 12:42:00,
2013-04-09 07:52:00,70.0,65.0,29.65,SE,136,11.0,18.0,84,0.00,,,0.00,,2013-04-09 12:52:00,
2013-04-09 08:02:00,70.0,65.0,29.65,ESE,105,7.0,19.0,84,0.00,,,0.00,,2013-04-09 13:02:00,
2013-04-09 08:12:00,70.0,65.0,29.65,ESE,105,7.0,19.0,84,0.00,,,0.00,,2013-04-09 13:12:00,
2013-04-09 08:23:00,70.0,65.0,29.65,SE,142,10.0,17.0,84,0.00,,,0.00,,2013-04-09 13:23:00,
2013-04-09 08:32:00,70.0,65.0,29.65,SE,141,10.0,18.0,84,0.00,,,0.00,,2013-04-09 13:32:00,
2013-04-09 08:42:00,70.0,65.0,29.65,SE,141,10.0,18.0,84,0.00,,,0.00,,2013-04-09 13:42:00,
2013-04-09 08:52:00,71.0,66.0,29.65,SSE,161,11.0,19.0,83,0.00,,,0.00,,2013-04-09 13:52:00,
2013-04-09 09:03:00,71.0,65.0,29.64,SE,131,13.0,24.0,81,0.00,,,0.00,,2013-04-09 14:03:00,
2013-04-09 09:12:00,71.0,65.0,29.64,SE,131,13.0,24.0,81,0.00,,,0.00,,2013-04-09 14:12:00,
2013-04-09 09:22:00,72.0,65.0,29.65,SSE,160,8.0,24.0,79,0.00,,,0.00,,2013-04-09 14:22:00,
2013-04-09 09:32:00,72.0,65.0,29.64,ESE,118,11.0,23.0,78,0.00,,,0.00,,2013-04-09 14:32:00,
2013-04-09 09:42:00,72.0,65.0,29.64,ESE,118,11.0,23.0,78,0.00,,,0.00,,2013-04-09 14:42:00,
2013-04-09 09:52:00,72.0,64.0,29.64,WSW,256,13.0,24.0,77,0.00,,,0.00,,2013-04-09 14:52:00,
2013-04-09 10:02:00,72.0,64.0,29.64,WSW,256,13.0,24.0,77,0.00,,,0.00,,2013-04-09 15:02:00,
2013-04-09 10:12:00,72.0,64.0,29.64,WSW,256,13.0,24.0,77,0.00,,,0.00,,2013-04-09 15:12:00,
2013-04-09 10:22:00,73.0,65.0,29.64,SE,135,8.0,28.0,76,0.00,,,0.00,,2013-04-09 15:22:00,
2013-04-09 10:33:00,73.0,65.0,29.63,ESE,107,10.0,24.0,75,0.00,,,0.00,,2013-04-09 15:33:00,
2013-04-09 10:43:00,73.0,65.0,29.63,ESE,107,10.0,24.0,75,0.00,,,0.00,,2013-04-09 15:43:00,
2013-04-09 10:53:00,74.0,64.0,29.63,SE,129,14.0,25.0,72,0.00,,,0.00,,2013-04-09 15:53:00,
2013-04-09 11:03:00,74.0,64.0,29.64,South,183,11.0,24.0,71,0.00,,,0.00,,2013-04-09 16:03:00,
2013-04-09 11:13:00,74.0,64.0,29.64,South,183,11.0,24.0,71,0.00,,,0.00,,2013-04-09 16:13:00,
2013-04-09 11:23:00,75.0,65.0,29.64,ESE,117,10.0,24.0,70,0.00,,,0.00,,2013-04-09 16:23:00,
2013-04-09 11:33:00,76.0,65.0,29.64,SE,135,11.0,22.0,68,0.00,,,0.00,,2013-04-09 16:33:00,
2013-04-09 11:42:00,76.0,65.0,29.64,SE,135,11.0,22.0,68,0.00,,,0.00,,2013-04-09 16:42:00,
2013-04-09 11:53:00,77.0,64.0,29.64,ESE,117,13.0,29.0,65,0.00,,,0.00,,2013-04-09 16:53:00,
2013-04-09 12:02:00,78.0,65.0,29.64,ESE,121,13.0,25.0,64,0.00,,,0.00,,2013-04-09 17:02:00,
2013-04-09 12:12:00,78.0,65.0,29.64,ESE,121,13.0,25.0,64,0.00,,,0.00,,2013-04-09 17:12:00,
2013-04-09 12:23:00,79.0,65.0,29.65,SE,134,8.0,19.0,63,0.00,,,0.00,,2013-04-09 17:23:00,
2013-04-09 12:32:00,79.0,65.0,29.64,ESE,105,10.0,27.0,62,0.00,,,0.00,,2013-04-09 17:32:00,
2013-04-09 12:42:00,79.0,65.0,29.64,ESE,105,10.0,27.0,62,0.00,,,0.00,,2013-04-09 17:42:00,
2013-04-09 12:53:00,79.0,65.0,29.64,SW,228,10.0,24.0,62,0.00,,,0.00,,2013-04-09 17:53:00,
2013-04-09 13:02:00,79.0,65.0,29.64,SE,131,9.0,24.0,63,0.00,,,0.00,,2013-04-09 18:02:00,
2013-04-09 13:12:00,79.0,65.0,29.64,SE,131,9.0,24.0,63,0.00,,,0.00,,2013-04-09 18:12:00,
2013-04-09 13:22:00,79.0,66.0,29.64,SSW,212,7.0,18.0,64,0.00,,,0.00,,2013-04-09 18:22:00,
2013-04-09 13:33:00,78.0,65.0,29.64,SW,217,8.0,22.0,65,0.00,,,0.00,,2013-04-09 18:33:00,
2013-04-09 13:43:00,78.0,65.0,29.64,SW,217,8.0,22.0,65,0.00,,,0.00,,2013-04-09 18:43:00,
2013-04-09 13:52:00,79.0,66.0,29.64,SW,226,14.0,25.0,64,0.00,,,0.00,,2013-04-09 18:52:00,
2013-04-09 14:02:00,79.0,66.0,29.64,SW,226,14.0,25.0,64,0.00,,,0.00,,2013-04-09 19:02:00,
2013-04-09 14:12:00,79.0,66.0,29.64,SW,226,14.0,25.0,64,0.00,,,0.00,,2013-04-09 19:12:00,
2013-04-09 14:22:00,79.0,66.0,29.64,SW,226,14.0,25.0,64,0.00,,,0.00,,2013-04-09 19:22:00,
2013-04-09 14:32:00,79.0,66.0,29.63,SW,230,13.0,25.0,64,0.00,,,0.00,,2013-04-09 19:32:00,
2013-04-09 14:41:00,79.0,66.0,29.63,SW,230,13.0,25.0,64,0.00,,,0.00,,2013-04-09 19:41:00,
2013-04-09 14:52:00,80.0,66.0,29.63,SSW,193,9.0,24.0,62,0.00,,,0.00,,2013-04-09 19:52:00,
2013-04-09 15:02:00,80.0,65.0,29.62,South,169,8.0,19.0,61,0.00,,,0.00,,2013-04-09 20:02:00,
2013-04-09 15:12:00,80.0,66.0,29.62,WNW,288,7.0,17.0,62,0.00,,,0.00,,2013-04-09 20:12:00,
2013-04-09 15:22:00,80.0,66.0,29.62,WNW,288,7.0,17.0,62,0.00,,,0.00,,2013-04-09 20:22:00,
2013-04-09 15:33:00,79.0,64.0,29.62,SE,132,11.0,26.0,61,0.00,,,0.00,,2013-04-09 20:33:00,
2013-04-09 15:42:00,79.0,64.0,29.62,SE,132,11.0,26.0,61,0.00,,,0.00,,2013-04-09 20:42:00,
2013-04-09 15:52:00,79.0,65.0,29.62,NW,316,8.0,17.0,62,0.00,,,0.00,,2013-04-09 20:52:00,
2013-04-09 16:02:00,79.0,65.0,29.62,SE,128,7.0,15.0,63,0.00,,,0.00,,2013-04-09 21:02:00,
2013-04-09 16:13:00,79.0,65.0,29.62,SE,128,7.0,15.0,63,0.00,,,0.00,,2013-04-09 21:13:00,
2013-04-09 16:22:00,79.0,65.0,29.62,SE,128,7.0,15.0,63,0.00,,,0.00,,2013-04-09 21:22:00,
2013-04-09 16:33:00,80.0,65.0,29.60,SE,136,10.0,22.0,61,0.00,,,0.00,,2013-04-09 21:33:00,
2013-04-09 16:42:00,80.0,65.0,29.60,SE,136,10.0,22.0,61,0.00,,,0.00,,2013-04-09 21:42:00,
2013-04-09 16:52:00,80.0,65.0,29.60,SE,138,10.0,27.0,60,0.00,,,0.00,,2013-04-09 21:52:00,
2013-04-09 17:03:00,81.0,66.0,29.60,SE,127,9.0,21.0,60,0.00,,,0.00,,2013-04-09 22:03:00,
2013-04-09 17:12:00,81.0,66.0,29.61,SE,131,7.0,17.0,60,0.00,,,0.00,,2013-04-09 22:12:00,
2013-04-09 17:23:00,81.0,66.0,29.61,SE,131,7.0,17.0,60,0.00,,,0.00,,2013-04-09 22:23:00,
2013-04-09 17:33:00,80.0,65.0,29.61,SE,141,8.0,22.0,61,0.00,,,0.00,,2013-04-09 22:33:00,
2013-04-09 17:42:00,80.0,65.0,29.61,SE,141,8.0,22.0,61,0.00,,,0.00,,2013-04-09 22:42:00,
2013-04-09 17:53:00,80.0,65.0,29.62,SE,143,7.0,15.0,61,0.00,,,0.00,,2013-04-09 22:53:00,
2013-04-09 18:03:00,81.0,66.0,29.61,East,90,10.0,18.0,60,0.00,,,0.00,,2013-04-09 23:03:00,
2013-04-09 18:12:00,81.0,66.0,29.61,ESE,122,10.0,20.0,60,0.00,,,0.00,,2013-04-09 23:12:00,
2013-04-09 18:22:00,81.0,66.0,29.61,ESE,122,10.0,20.0,60,0.00,,,0.00,,2013-04-09 23:22:00,
2013-04-09 18:32:00,81.0,66.0,29.61,ESE,122,10.0,20.0,60,0.00,,,0.00,,2013-04-09 23:32:00,
2013-04-09 18:42:00,81.0,66.0,29.61,ESE,122,10.0,20.0,60,0.00,,,0.00,,2013-04-09 23:42:00,
2013-04-09 18:52:00,81.0,66.0,29.59,East,101,7.0,15.0,60,0.00,,,0.00,,2013-04-09 23:52:00,
2013-04-09 19:03:00,81.0,66.0,29.59,East,101,7.0,15.0,60,0.00,,,0.00,,2013-04-10 00:03:00,
2013-04-09 19:12:00,81.0,66.0,29.59,East,101,7.0,15.0,60,0.00,,,0.00,,2013-04-10 00:12:00,
2013-04-09 19:22:00,80.0,65.0,29.59,SSE,159,7.0,13.0,61,0.00,,,0.00,,2013-04-10 00:22:00,
2013-04-09 19:32:00,80.0,65.0,29.59,ESE,120,6.0,15.0,61,0.00,,,0.00,,2013-04-10 00:32:00,
2013-04-09 19:42:00,80.0,65.0,29.59,ESE,120,6.0,15.0,61,0.00,,,0.00,,2013-04-10 00:42:00,
2013-04-09 19:52:00,79.0,65.0,29.59,ESE,112,7.0,24.0,62,0.00,,,0.00,,2013-04-10 00:52:00,
2013-04-09 20:02:00,79.0,65.0,29.57,SE,125,5.0,19.0,63,0.00,,,0.00,,2013-04-10 01:02:00,
2013-04-09 20:12:00,79.0,65.0,29.57,SSE,148,4.0,14.0,63,0.00,,,0.00,,2013-04-10 01:12:00,
2013-04-09 20:23:00,79.0,65.0,29.57,SSE,148,4.0,14.0,63,0.00,,,0.00,,2013-04-10 01:23:00,
2013-04-09 20:32:00,79.0,65.0,29.59,ESE,122,5.0,12.0,63,0.00,,,0.00,,2013-04-10 01:32:00,
2013-04-09 20:42:00,79.0,65.0,29.59,ESE,122,5.0,12.0,63,0.00,,,0.00,,2013-04-10 01:42:00,
2013-04-09 20:52:00,78.0,64.0,29.60,SSE,156,4.0,8.0,63,0.00,,,0.00,,2013-04-10 01:52:00,
2013-04-09 21:02:00,78.0,65.0,29.61,ESE,116,3.0,11.0,64,0.00,,,0.00,,2013-04-10 02:02:00,
2013-04-09 21:12:00,78.0,65.0,29.61,ESE,116,3.0,11.0,64,0.00,,,0.00,,2013-04-10 02:12:00,
2013-04-09 21:22:00,78.0,65.0,29.62,SSE,155,5.0,10.0,65,0.00,,,0.00,,2013-04-10 02:22:00,
2013-04-09 21:32:00,78.0,66.0,29.64,East,91,5.0,13.0,66,0.00,,,0.00,,2013-04-10 02:32:00,
2013-04-09 21:42:00,78.0,66.0,29.64,East,91,5.0,13.0,66,0.00,,,0.00,,2013-04-10 02:42:00,
2013-04-09 21:52:00,78.0,67.0,29.64,SE,141,7.0,16.0,68,0.00,,,0.00,,2013-04-10 02:52:00,
2013-04-09 22:02:00,78.0,67.0,29.65,East,92,7.0,16.0,69,0.00,,,0.00,,2013-04-10 03:02:00,
2013-04-09 22:12:00,78.0,67.0,29.65,East,92,7.0,16.0,69,0.00,,,0.00,,2013-04-10 03:12:00,
2013-04-09 22:22:00,77.0,67.0,29.66,SE,129,7.0,13.0,71,0.00,,,0.00,,2013-04-10 03:22:00,
2013-04-09 22:33:00,77.0,67.0,29.67,SE,141,7.0,16.0,72,0.00,,,0.00,,2013-04-10 03:33:00,
2013-04-09 22:43:00,77.0,67.0,29.67,SE,141,7.0,16.0,72,0.00,,,0.00,,2013-04-10 03:43:00,
2013-04-09 22:52:00,77.0,68.0,29.66,ESE,115,7.0,18.0,74,0.00,,,0.00,,2013-04-10 03:52:00,
2013-04-09 23:03:00,76.0,68.0,29.66,SE,132,8.0,19.0,76,0.00,,,0.00,,2013-04-10 04:03:00,
2013-04-09 23:13:00,76.0,68.0,29.66,SE,132,8.0,19.0,76,0.00,,,0.00,,2013-04-10 04:13:00,
2013-04-09 23:23:00,76.0,68.0,29.67,ESE,120,8.0,20.0,76,0.00,,,0.00,,2013-04-10 04:23:00,
2013-04-09 23:33:00,75.0,67.0,29.67,ESE,121,11.0,19.0,77,0.00,,,0.00,,2013-04-10 04:33:00,
2013-04-09 23:42:00,75.0,67.0,29.67,ESE,121,11.0,19.0,77,0.00,,,0.00,,2013-04-10 04:42:00,
2013-04-09 23:52:00,75.0,68.0,29.66,SSE,152,7.0,20.0,78,0.00,,,0.00,,2013-04-10 04:52:00,